Weather History for Needles, CA

Change the Weather History Date:

Friday, March 8, 2013

  Actual Average Record
Temperature  
Mean Temperature 54 °F -  
Max Temperature 61 °F 74 °F 93 °F (1972)
Min Temperature 48 °F 48 °F 34 °F (1969)
Degree Days  
Heating Degree Days 10    
Growing Degree Days 4 (Base 50)    
Moisture  
Dew Point 41 °F    
Average Humidity 62    
Maximum Humidity 82    
Minimum Humidity 36    
Precipitation  
Precipitation 0.25 in - - ()
Sea Level Pressure  
Sea Level Pressure 29.77 in    
Wind  
Wind Speed 11 mph (SW)    
Max Wind Speed 30 mph    
Max Gust Speed 38 mph    
Visibility 9 miles    
Events Rain    
Averages and records for this station are not official NWS values.
T = Trace of Precipitation, MM = Missing Value Source: NWS Daily Summary

Daily Weather History Graph

Daily Weather History Graph

Search for Another Location

Airport:

Trip Planner

Search our weather history database for the weather conditions in past years. The results will help you decide how hot, cold, wet, or windy it might be!

Date:

Astronomy

Mar. 08, 2013 Rise Set
Actual Time 5:58 AM PST 5:40 PM PST
Civil Twilight 5:32 AM PST 6:05 PM PST
Nautical Twilight 5:03 AM PST 6:35 PM PST
Astronomical Twilight 4:34 AM PST 7:04 PM PST
Moon 3:38 AM PST (3/8) 2:46 PM PST (3/8)
Length of Visible Light 12h 32m
Length of Day
11h 42m
Waning Crescent, 11% of the Moon is Illuminated
Mar 8
Waning Crescent
Mar 11
New
Mar 19
First Quarter
Mar 27
Full
Apr 2
Last Quarter

Hourly Weather History & Observations

Time (PST) Temp. Dew Point Humidity Pressure Visibility Wind Dir Wind Speed Gust Speed Precip Events Conditions
12:56 AM 60.1 °F 35.1 °F 39% 29.74 in 10.0 mi West 12.7 mph - N/A   Mostly Cloudy
1:56 AM 59.0 °F 37.0 °F 44% 29.72 in 10.0 mi WSW 9.2 mph - 0.00 in   Mostly Cloudy
2:56 AM 60.1 °F 36.0 °F 41% 29.69 in 10.0 mi SW 6.9 mph - N/A   Overcast
3:56 AM 60.1 °F 36.0 °F 41% 29.69 in 10.0 mi SW 10.4 mph - 0.00 in   Overcast
4:56 AM 55.9 °F 45.0 °F 67% 29.71 in 10.0 mi SW 6.9 mph - 0.00 in Rain Light Rain
5:56 AM 55.9 °F 43.0 °F 62% 29.71 in 10.0 mi WSW 4.6 mph - 0.00 in   Overcast
6:56 AM 53.1 °F 44.1 °F 71% 29.73 in 10.0 mi WSW 12.7 mph - 0.01 in Rain Light Rain
7:56 AM 52.0 °F 46.0 °F 80% 29.74 in 10.0 mi SSW 4.6 mph - 0.02 in Rain Light Rain
8:56 AM 53.1 °F 46.9 °F 80% 29.75 in 10.0 mi East 6.9 mph - 0.01 in   Overcast
9:56 AM 55.0 °F 46.9 °F 74% 29.74 in 10.0 mi ESE 6.9 mph - 0.01 in Rain Light Rain
10:39 AM 53.6 °F 46.4 °F 77% 29.80 in 1.8 mi WSW 29.9 mph 38.0 mph 0.11 in Rain Heavy Rain
10:46 AM 50.0 °F 44.6 °F 82% 29.81 in 1.2 mi West 23.0 mph 38.0 mph 0.16 in Rain Rain
10:50 AM 50.0 °F 42.8 °F 76% 29.80 in 2.5 mi West 21.9 mph 31.1 mph 0.16 in Rain Light Rain
10:56 AM 50.0 °F 43.0 °F 77% 29.76 in 5.0 mi WNW 20.7 mph 29.9 mph 0.18 in Rain Rain
11:56 AM 53.1 °F 44.1 °F 71% 29.75 in 10.0 mi East 6.9 mph - 0.02 in   Mostly Cloudy
12:56 PM 52.0 °F 46.0 °F 80% 29.74 in 10.0 mi ENE 8.1 mph - N/A   Partly Cloudy
1:56 PM 55.9 °F 44.1 °F 64% 29.73 in 10.0 mi East 5.8 mph - N/A   Mostly Cloudy
2:56 PM 61.0 °F 34.0 °F 36% 29.73 in 10.0 mi NW 12.7 mph - N/A   Scattered Clouds
3:56 PM 60.1 °F 33.1 °F 36% 29.73 in 10.0 mi West 5.8 mph 16.1 mph N/A   Mostly Cloudy
4:56 PM 57.9 °F 35.1 °F 42% 29.73 in 10.0 mi SW 5.8 mph - N/A   Overcast
5:56 PM 57.0 °F 34.0 °F 42% 29.76 in 10.0 mi WSW 12.7 mph - N/A   Scattered Clouds
6:56 PM 53.1 °F 35.1 °F 50% 29.80 in 10.0 mi SSW 18.4 mph 24.2 mph N/A   Mostly Cloudy
7:12 PM 51.8 °F 37.4 °F 58% 29.84 in 10.0 mi SSW 15.0 mph - N/A   Overcast
7:56 PM 51.1 °F 39.0 °F 63% 29.84 in 10.0 mi SW 8.1 mph - N/A   Partly Cloudy
8:56 PM 51.1 °F 39.9 °F 66% 29.86 in 10.0 mi WSW 3.5 mph - N/A   Clear
9:56 PM 48.9 °F 41.0 °F 74% 29.87 in 10.0 mi SE 3.5 mph - N/A   Mostly Cloudy
10:56 PM 48.9 °F 42.1 °F 77% 29.88 in 10.0 mi SSE 3.5 mph - N/A   Overcast
11:56 PM 50.0 °F 42.1 °F 74% 29.89 in 10.0 mi SSW 3.5 mph - N/A   Overcast